| time (UTC) | temp F | wind direction | speed MPH | gust MPH | rain 1hr in | rain 24hr in | rain mn in | humidity % | barometer mb |
| 20260505170111 | 51 | 41 | 5.0 | 11.0 | 0.00 | 0.06 | 0.06 | 65 | 1012.1 |
| 20260505164559 | 51 | 53 | 7.0 | 14.0 | 0.00 | 0.06 | 0.06 | 64 | 1012.3 |
| 20260505163103 | 51 | 349 | 8.0 | 14.0 | 0.00 | 0.06 | 0.06 | 65 | 1012.3 |
| 20260505161616 | 52 | 336 | 7.0 | 16.0 | 0.00 | 0.06 | 0.06 | 61 | 1012.3 |
| 20260505153108 | 54 | 1 | 3.0 | 7.0 | 0.00 | 0.06 | 0.06 | 60 | 1012.3 |
| 20260505150105 | 54 | 358 | 7.0 | 14.0 | 0.00 | 0.06 | 0.06 | 63 | 1012.5 |
| 20260505140114 | 51 | 49 | 7.0 | 12.0 | 0.05 | 0.06 | 0.06 | 73 | 1012.9 |
| 20260505130111 | 51 | 179 | 11.0 | 17.0 | 0.00 | 0.00 | 0.00 | 62 | 1012.6 |
| 20260505124611 | 51 | 57 | 5.0 | 10.0 | 0.00 | 0.00 | 0.00 | 72 | 1012.8 |
| 20260505123108 | 51 | 290 | 6.0 | 13.0 | 0.00 | 0.00 | 0.00 | 67 | 1012.9 |
| 20260505121631 | 53 | 38 | 6.0 | 16.0 | 0.00 | 0.00 | 0.00 | 65 | 1012.8 |
| 20260505120112 | 53 | 37 | 5.0 | 19.0 | 0.00 | 0.00 | 0.00 | 66 | 1012.9 |
| 20260505114600 | 55 | 197 | 2.0 | 12.0 | 0.00 | 0.00 | 0.00 | 56 | 1012.9 |
| 20260505113112 | 54 | 224 | 0.0 | 5.0 | 0.00 | 0.00 | 0.00 | 64 | 1013.1 |
| 20260505111608 | 52 | 30 | 2.0 | 5.0 | 0.00 | 0.00 | 0.00 | 67 | 1013.3 |
| 20260505110107 | 50 | 0 | 1.0 | 2.0 | 0.00 | 0.00 | 0.00 | 70 | 1013.4 |
| 20260505101601 | 49 | 275 | 4.0 | 8.0 | 0.00 | 0.00 | 0.00 | 68 | 1013.9 |
| 20260505094600 | 50 | 354 | 2.0 | 8.0 | 0.00 | 0.00 | 0.00 | 66 | 1013.7 |
| 20260505093059 | 50 | 339 | 3.0 | 5.0 | 0.00 | 0.00 | 0.00 | 66 | 1013.6 |
| 20260505091600 | 49 | 269 | 2.0 | 6.0 | 0.00 | 0.00 | 0.00 | 68 | 1013.8 |
| 20260505090107 | 49 | 255 | 4.0 | 7.0 | 0.00 | 0.00 | 0.00 | 70 | 1013.8 |
| 20260505084559 | 49 | 337 | 3.0 | 7.0 | 0.00 | 0.00 | 0.00 | 69 | 1013.9 |
| 20260505083105 | 47 | 316 | 2.0 | 9.0 | 0.00 | 0.00 | 0.00 | 73 | 1013.8 |
| 20260505081603 | 47 | 0 | 2.0 | 6.0 | 0.00 | 0.00 | 0.00 | 80 | 1013.8 |
| 20260505080059 | 46 | 54 | 2.0 | 5.0 | 0.00 | 0.00 | 0.00 | 82 | 1013.9 |
| 20260505074600 | 46 | 59 | 3.0 | 6.0 | 0.00 | 0.00 | 0.00 | 82 | 1013.8 |
| 20260505073100 | 46 | 60 | 1.0 | 5.0 | 0.00 | 0.00 | 0.00 | 82 | 1013.8 |
| 20260505071559 | 45 | 56 | 2.0 | 5.0 | 0.00 | 0.00 | 0.00 | 83 | 1013.5 |
| 20260505064600 | 45 | 46 | 1.0 | 5.0 | 0.00 | 0.00 | 0.00 | 84 | 1013.4 |
| 20260505063059 | 45 | 39 | 1.0 | 3.0 | 0.00 | 0.00 | 0.00 | 84 | 1013.4 |
| 20260505061610 | 45 | 110 | 1.0 | 3.0 | 0.00 | 0.00 | 0.00 | 84 | 1013.4 |
| 20260505060059 | 45 | 0 | 0.0 | 0.0 | 0.00 | 0.00 | 0.00 | 81 | 1013.2 |
| 20260505054601 | 45 | 0 | 0.0 | 1.0 | 0.00 | 0.00 | 0.00 | 80 | 1013.1 |
| 20260505053108 | 45 | 0 | 0.0 | 1.0 | 0.00 | 0.00 | 0.00 | 81 | 1013.1 |
| 20260505051558 | 45 | 0 | 0.0 | 2.0 | 0.00 | 0.00 | 0.00 | 79 | 1013.0 |
| 20260505041559 | 45 | 0 | 0.0 | 1.0 | 0.00 | 0.00 | 0.00 | 85 | 1013.0 |
| 20260505034559 | 46 | 0 | 0.0 | 0.0 | 0.00 | 0.00 | 0.00 | 84 | 1013.3 |
| 20260505033115 | 46 | 0 | 0.0 | 0.0 | 0.00 | 0.00 | 0.00 | 82 | 1013.2 |
| 20260505031601 | 46 | 153 | 0.0 | 0.0 | 0.00 | 0.00 | 0.00 | 82 | 1013.2 |
| 20260505030059 | 46 | 0 | 0.0 | 2.0 | 0.00 | 0.00 | 0.00 | 80 | 1013.3 |
| 20260505024609 | 46 | 264 | 0.0 | 2.0 | 0.00 | 0.00 | 0.00 | 81 | 1013.3 |
| 20260505023107 | 46 | 290 | 0.0 | 3.0 | 0.00 | 0.00 | 0.00 | 84 | 1013.4 |
| 20260505021559 | 45 | 0 | 0.0 | 3.0 | 0.00 | 0.00 | 0.00 | 88 | 1013.4 |
| 20260505020100 | 45 | 0 | 0.0 | 1.0 | 0.00 | 0.00 | 0.00 | 89 | 1013.4 |
| 20260505014559 | 45 | 0 | 0.0 | 0.0 | 0.00 | 0.00 | 0.00 | 89 | 1013.5 |
| 20260505013059 | 45 | 0 | 0.0 | 1.0 | 0.00 | 0.00 | 0.00 | 89 | 1013.6 |
| 20260505011601 | 44 | 0 | 0.0 | 0.0 | 0.00 | 0.00 | 0.00 | 88 | 1013.6 |
| 20260505004601 | 45 | 162 | 1.0 | 2.0 | 0.00 | 0.00 | 0.00 | 87 | 1013.9 |
| 20260505003102 | 45 | 139 | 1.0 | 2.0 | 0.00 | 0.00 | 0.00 | 87 | 1013.9 |
| 20260505001559 | 45 | 0 | 0.0 | 2.0 | 0.00 | 0.00 | 0.00 | 88 | 1014.2 |
| 20260504234624 | 45 | 86 | 0.0 | 2.0 | 0.00 | 0.00 | 0.00 | 86 | 1013.9 |
| 20260504233100 | 46 | 0 | 0.0 | 1.0 | 0.00 | 0.00 | 0.00 | 84 | 1013.9 |
| 20260504231605 | 46 | 109 | 0.0 | 1.0 | 0.00 | 0.00 | 0.00 | 83 | 1014.1 |
| 20260504230101 | 46 | 0 | 0.0 | 1.0 | 0.00 | 0.00 | 0.00 | 82 | 1013.9 |
| 20260504224609 | 46 | 0 | 0.0 | 3.0 | 0.00 | 0.00 | 0.00 | 82 | 1014.1 |
| 20260504223100 | 47 | 123 | 0.0 | 1.0 | 0.00 | 0.00 | 0.00 | 80 | 1014.0 |
| 20260504221605 | 48 | 127 | 0.0 | 3.0 | 0.00 | 0.00 | 0.00 | 79 | 1014.1 |
| 20260504220100 | 49 | 0 | 0.0 | 2.0 | 0.00 | 0.00 | 0.00 | 75 | 1014.3 |
| 20260504214602 | 49 | 21 | 1.0 | 2.0 | 0.00 | 0.00 | 0.00 | 75 | 1014.2 |
| 20260504213105 | 50 | 0 | 0.0 | 3.0 | 0.00 | 0.00 | 0.00 | 76 | 1014.3 |
| 20260504211605 | 50 | 355 | 1.0 | 7.0 | 0.00 | 0.00 | 0.00 | 76 | 1014.5 |
| 20260504210105 | 50 | 344 | 1.0 | 4.0 | 0.00 | 0.00 | 0.00 | 76 | 1014.6 |
| 20260504204638 | 51 | 304 | 0.0 | 1.0 | 0.00 | 0.00 | 0.00 | 74 | 1014.2 |
| 20260504203102 | 51 | 0 | 0.0 | 4.0 | 0.00 | 0.00 | 0.00 | 73 | 1014.1 |
| 20260504201602 | 52 | 262 | 2.0 | 7.0 | 0.00 | 0.00 | 0.00 | 71 | 1013.7 |
| 20260504194603 | 53 | 0 | 0.0 | 3.0 | 0.00 | 0.00 | 0.00 | 69 | 1013.4 |
| 20260504193100 | 53 | 40 | 1.0 | 4.0 | 0.00 | 0.00 | 0.00 | 69 | 1013.2 |
| 20260504191559 | 54 | 27 | 1.0 | 5.0 | 0.00 | 0.00 | 0.00 | 68 | 1013.1 |
| 20260504184605 | 54 | 330 | 3.0 | 8.0 | 0.00 | 0.00 | 0.00 | 65 | 1012.8 |
| 20260504183101 | 55 | 340 | 5.0 | 11.0 | 0.00 | 0.00 | 0.00 | 64 | 1012.8 |
| 20260504181559 | 55 | 319 | 7.0 | 12.0 | 0.00 | 0.00 | 0.00 | 63 | 1012.6 |
| 20260504180058 | 56 | 334 | 6.0 | 10.0 | 0.00 | 0.00 | 0.00 | 62 | 1012.5 |
| 20260504174557 | 56 | 288 | 7.0 | 14.0 | 0.00 | 0.00 | 0.00 | 61 | 1012.5 |
| 20260504173058 | 57 | 338 | 9.0 | 17.0 | 0.00 | 0.00 | 0.00 | 60 | 1012.4 |
| 20260504171558 | 57 | 312 | 10.0 | 20.0 | 0.00 | 0.00 | 0.00 | 60 | 1012.4 |